This is the latest recevied weather packets stored in our database for station/object Krupka. If no packets are shown the sender has not sent any weather packets the latest 1 day(s).
| Time | Temp. | Humidity | Pressure | Rain* | Wind** | Luminosity | Snow |
|---|---|---|---|---|---|---|---|
| 1777962604 | 12.78° C | 66% | - | - | 4.02 m/s, 3° | - | - |
| 1777962303 | 12.78° C | 66% | - | - | 4.02 m/s, 1° | - | - |
| 1777962006 | 12.78° C | 66% | - | - | 3.13 m/s, 348° | - | - |
| 1777961704 | 12.78° C | 66% | - | - | 4.02 m/s, 342° | - | - |
| 1777961403 | 12.78° C | 65% | - | - | 4.02 m/s, 358° | - | - |
| 1777961103 | 12.78° C | 65% | - | - | 4.02 m/s, 346° | - | - |
| 1777960803 | 12.78° C | 64% | - | - | 3.13 m/s, 348° | - | - |
| 1777960503 | 12.78° C | 64% | - | - | 3.13 m/s, 358° | - | - |
| 1777960203 | 12.78° C | 64% | - | - | 3.13 m/s, 350° | - | - |
| 1777959903 | 12.78° C | 64% | - | - | 4.02 m/s, 350° | - | - |
| 1777959603 | 12.78° C | 63% | - | - | 4.92 m/s, 339° | - | - |
| 1777959303 | 13.89° C | 62% | - | - | 3.13 m/s, 343° | - | - |
| 1777959003 | 13.89° C | 61% | - | - | 4.02 m/s, 357° | - | - |
| 1777958703 | 13.89° C | 61% | - | - | 1.79 m/s, 345° | - | - |
| 1777958408 | 13.89° C | 61% | - | - | 3.13 m/s, 354° | - | - |
| 1777958103 | 13.89° C | 61% | - | - | 3.13 m/s, 350° | - | - |
| 1777957803 | 13.89° C | 61% | - | - | 1.79 m/s, 352° | - | - |
| 1777957503 | 13.89° C | 61% | - | - | 3.13 m/s, 356° | - | - |
| 1777957203 | 13.89° C | 61% | - | - | 3.13 m/s, 354° | - | - |
| 1777956903 | 13.89° C | 62% | - | - | 3.13 m/s, 6° | - | - |
| 1777956603 | 13.89° C | 62% | - | - | 4.02 m/s, 357° | - | - |
| 1777956304 | 13.89° C | 62% | - | - | 3.13 m/s, 345° | - | - |
| 1777956003 | 12.78° C | 63% | - | - | 3.13 m/s, 357° | - | - |
| 1777955703 | 12.78° C | 63% | - | - | 3.13 m/s, 9° | - | - |
| 1777955403 | 12.78° C | 63% | - | - | 3.13 m/s, 13° | - | - |
* Rain since midnight (hover to see other rain measurements)
** Current wind speed in m/s (hover to see current wind gust speed)